This demonstration page uses our WeatherBlox Daily Observations layout. Learn more.

Left ArrowRight Arrow

Hourly Observations for May 16, 2020

Temp ( °F °C ) Dew Point ( °F °C ) Humidity (%) Winds ( mph kmh ) Pressure ( in mb ) Visibility ( mi km ) Precip ( " mm )
12:54 am 00:54 Clear 60 15.6 46 7.8 60 60 E 3 6 29.94 1014 10 16.0934 0.001 0.001
1:54 am 01:54 Clear 58 14.4 47 8.3 67 67 Calm 29.94 1014 10 16.0934 0 0
2:54 am 02:54 Clear 52 11.1 46 7.8 80 80 NNE 3 6 29.94 1014 10 16.0934 0 0
3:54 am 03:54 Clear 54 12.2 47 8.3 77 77 Calm 29.93 1014 10 16.0934 0 0
4:54 am 04:54 Clear 53 11.7 47 8.3 80 80 NNW 6 9 29.94 1014 10 16.0934 0 0
5:54 am 05:54 Clear 54 12.2 47 8.3 77 77 NNW 5 7 29.95 1014 10 16.0934 0 0
6:54 am 06:54 Mostly Cloudy 53 11.7 48 8.9 83 83 N 3 6 29.95 1014 10 16.0934 0 0
7:07 am 07:07 Mostly Cloudy 54 12.2 48 8.9 80 80 N 5 7 29.97 1015 10 16.0934 0 0
7:15 am 07:15 Partly Cloudy 54 12.2 48 8.9 80 80 N 6 9 29.97 1015 10 16.0934 0 0
7:54 am 07:54 Cloudy 57 13.9 50 10 78 78 NE 7 11 29.95 1014 10 16.0934 0 0
8:04 am 08:04 Cloudy 57 13.9 50 10 78 78 NE 6 9 29.96 1015 10 16.0934 0 0
8:20 am 08:20 Cloudy 58 14.4 51 10.6 78 78 NE 6 9 29.96 1015 10 16.0934 0 0
8:45 am 08:45 Cloudy 59 15 51 10.6 75 75 NE 6 9 29.95 1014 10 16.0934 0 0
8:54 am 08:54 Cloudy 60 15.6 51 10.6 72 72 ENE 3 6 29.95 1014 10 16.0934 0 0
9:54 am 09:54 Cloudy 62 16.7 53 11.7 73 73 ENE 6 9 29.94 1014 10 16.0934 0 0
10:54 am 10:54 Cloudy 66 18.9 56 13.3 70 70 E 6 9 29.94 1014 10 16.0934 0 0
11:32 am 11:32 Cloudy 67 19.4 58 14.4 73 73 ESE 9 15 29.92 1013 10 16.0934 0.001 0.001
11:54 am 11:54 Cloudy 68 20 58 14.4 70 70 ESE 10 17 29.92 1013 10 16.0934 0.001 0.001
12:54 pm 12:54 Cloudy 70 21.1 59 15 68 68 ESE 8 13 29.9 1012 10 16.0934 0 0
1:05 pm 13:05 Cloudy 70 21.1 59 15 68 68 ESE 12 19 29.87 1012 10 16.0934 0 0
1:28 pm 13:28 Cloudy 70 21.1 59 15 68 68 ESE 8 13 29.87 1012 10 16.0934 0 0
1:40 pm 13:40 Cloudy 70 21.1 58 14.4 66 66 SE 8 13 29.87 1012 10 16.0934 0 0
1:54 pm 13:54 Cloudy 71 21.7 59 15 66 66 ESE 7 11 29.88 1012 10 16.0934 0 0
2:54 pm 14:54 Cloudy with Light Rain 68 20 61 16.1 78 78 Calm 29.88 1012 9 14.48406 0.01 0.254
3:54 pm 15:54 Cloudy 70 21.1 60 15.6 71 71 Calm 29.87 1012 10 16.0934 0.001 0.001
4:54 pm 16:54 Cloudy 70 21.1 61 16.1 73 73 NNW 3 6 29.85 1011 10 16.0934 0 0
5:54 pm 17:54 Cloudy 70 21.1 59 15 68 68 WNW 7 11 29.84 1011 10 16.0934 0 0
6:54 pm 18:54 Cloudy 70 21.1 59 15 68 68 NW 6 9 29.85 1011 10 16.0934 0 0
7:54 pm 19:54 Cloudy 61 16.1 58 14.4 90 90 NNW 15 24 29.87 1011 7 11.26538 0.05 1.27
8:12 pm 20:12 Cloudy 60 15.6 57 13.9 90 90 NNW 16 26 29.87 1011 10 16.0934 0 0
8:54 pm 20:54 Cloudy 59 15 56 13.3 90 90 N 8 13 29.88 1012 9 14.48406 0 0
9:54 pm 21:54 Mostly Cloudy 57 13.9 54 12.2 90 90 NNW 7 11 29.9 1012 10 16.0934 0 0
10:05 pm 22:05 Partly Cloudy 57 13.9 54 12.2 90 90 NW 8 13 29.9 1013 10 16.0934 0 0
10:19 pm 22:19 Mostly Cloudy 57 13.9 53 11.7 87 87 NNW 5 7 29.9 1013 10 16.0934 0 0
10:34 pm 22:34 Partly Cloudy 56 13.3 53 11.7 90 90 N 7 11 29.9 1012 10 16.0934 0 0
10:54 pm 22:54 Mostly Cloudy 57 13.9 53 11.7 87 87 NNW 8 13 29.91 1013 10 16.0934 0 0
11:54 pm 23:54 Cloudy 56 13.3 51 10.6 84 84 NNW 13 20 29.91 1013 10 16.0934 0 0

Powered by AerisWeather